GW2624 Weather Reports


Display with metric or nautical units.
time (UTC)temp
F
wind
direction
speed
MPH
gust
MPH
rain 1hr
in
rain 24hr
in
rain mn
in
humidity
%
barometer
mb
20260904204905 82 151 1.0 3.0 0.00 0.01 0.01 37 1005.1
20260904200405 80 27 2.0 7.0 0.00 0.01 0.01 40 1006.0
20260904195405 81 113 2.0 5.0 0.00 0.01 0.01 41 1006.2
20260904194405 79 57 1.0 7.0 0.00 0.01 0.01 43 1006.4
20260904193905 79 291 3.0 7.0 0.00 0.01 0.01 43 1006.5
20260904193405 80 131 3.0 5.0 0.00 0.01 0.01 42 1006.5
20260904192405 79 191 2.0 5.0 0.00 0.01 0.01 45 1006.6
20260904191405 78 289 2.0 3.0 0.00 0.01 0.01 45 1006.8
20260904190905 78 281 2.0 3.0 0.00 0.01 0.01 43 1006.9
20260904185905 77 134 1.0 7.0 0.00 0.01 0.01 44 1007.1
20260904185405 78 134 3.0 7.0 0.00 0.01 0.01 43 1007.2
20260904184405 77 306 1.0 3.0 0.00 0.01 0.01 45 1007.3
20260904183905 77 245 1.0 3.0 0.00 0.01 0.01 47 1007.3
20260904182405 76 200 1.0 3.0 0.00 0.01 0.01 46 1007.4
20260904181405 76 298 1.0 3.0 0.00 0.01 0.01 46 1007.5
20260904175405 75 121 1.0 3.0 0.00 0.01 0.01 49 1007.8
20260904174405 74 194 1.0 3.0 0.00 0.01 0.01 49 1007.8
20260904173404 74 243 1.0 3.0 0.00 0.01 0.01 49 1007.6
20260904172905 74 248 1.0 3.0 0.00 0.01 0.01 49 1007.6
20260904172405 74 233 1.0 3.0 0.00 0.01 0.01 50 1007.6
20260904171405 74 173 1.0 3.0 0.00 0.01 0.01 50 1007.5
20260904170405 74 218 1.0 3.0 0.00 0.01 0.01 49 1007.4
20260904164904 74 40 1.0 3.0 0.00 0.01 0.01 51 1007.3
20260904163905 74 19 1.0 2.0 0.00 0.01 0.01 52 1007.4
20260904163406 74 309 1.0 3.0 0.00 0.01 0.01 52 1007.4
20260904162905 73 27 1.0 3.0 0.00 0.01 0.01 52 1007.5
20260904162405 73 334 1.0 2.0 0.00 0.01 0.01 52 1007.4
20260904161404 72 107 1.0 3.0 0.00 0.01 0.01 56 1007.4
20260904160404 70 195 1.0 3.0 0.00 0.01 0.01 57 1007.5
20260904154405 67 142 1.0 5.0 0.00 0.01 0.01 70 1007.5
20260904152905 66 135 0.0 0.0 0.00 0.01 0.01 76 1007.4
20260904152405 66 135 0.0 0.0 0.00 0.01 0.01 75 1007.4
20260904150904 66 135 0.0 0.0 0.00 0.01 0.01 76 1007.3
20260904150405 66 135 0.0 1.0 0.00 0.01 0.01 74 1007.3
20260904145405 65 135 0.0 2.0 0.00 0.01 0.01 73 1007.3
20260904143905 65 134 1.0 3.0 0.00 0.01 0.01 74 1007.1
20260904142905 64 142 0.0 2.0 0.00 0.01 0.01 76 1007.1
20260904140905 64 140 0.0 3.0 0.00 0.01 0.01 76 1007.1
20260904140405 64 140 0.0 3.0 0.00 0.01 0.01 75 1007.2
20260904133405 63 154 2.0 3.0 0.00 0.01 0.01 76 1006.8
20260904132905 63 138 1.0 5.0 0.00 0.01 0.01 75 1006.8
20260904132405 63 147 1.0 5.0 0.00 0.01 0.01 76 1006.7
20260904130905 63 132 1.0 3.0 0.00 0.01 0.01 76 1006.6
20260904125905 63 150 2.0 3.0 0.00 0.01 0.01 76 1006.5
20260904125405 63 143 1.0 3.0 0.00 0.01 0.01 77 1006.4
20260904124905 63 143 0.0 2.0 0.00 0.01 0.01 76 1006.3
20260904120905 63 147 1.0 3.0 0.01 0.01 0.01 78 1006.1
20260904120405 63 145 1.0 3.0 0.01 0.01 0.01 78 1006.1
20260904115405 64 59 2.0 5.0 0.01 0.01 0.01 77 1005.9
20260904114405 64 70 1.0 5.0 0.01 0.01 0.01 76 1006.0
20260904113405 64 147 2.0 5.0 0.00 0.00 0.00 74 1005.9
20260904112405 65 135 1.0 6.0 0.00 0.00 0.00 72 1005.8
20260904111904 65 142 1.0 6.0 0.00 0.00 0.00 71 1005.8
20260904111404 66 144 2.0 7.0 0.00 0.00 0.00 70 1005.8
20260904104405 65 135 1.0 3.0 0.00 0.00 0.00 71 1005.5
20260904103405 65 132 1.0 3.0 0.00 0.00 0.00 72 1005.5
20260904101905 65 132 0.0 3.0 0.00 0.00 0.00 70 1005.6
20260904100905 65 135 1.0 5.0 0.00 0.00 0.00 71 1005.6
20260904093905 65 51 3.0 5.0 0.00 0.00 0.00 74 1005.7
20260904093405 65 36 2.0 3.0 0.00 0.00 0.00 73 1006.0
20260904091905 65 130 2.0 7.0 0.00 0.00 0.00 69 1006.1
20260904091405 64 137 3.0 5.0 0.00 0.00 0.00 68 1006.1
20260904090905 64 166 2.0 3.0 0.00 0.00 0.00 69 1005.9
20260904085405 64 166 1.0 3.0 0.00 0.00 0.00 69 1005.9
20260904084405 64 166 0.0 0.0 0.00 0.00 0.00 67 1005.8
20260904083905 64 166 0.0 0.0 0.00 0.00 0.00 66 1005.8
20260904083405 64 166 0.0 1.0 0.00 0.00 0.00 67 1005.8
20260904080904 63 166 0.0 0.0 0.00 0.00 0.00 68 1005.9
20260904075905 63 166 0.0 0.0 0.00 0.00 0.00 68 1005.9
20260904074905 63 166 0.0 0.0 0.00 0.00 0.00 67 1006.0
20260904074405 63 166 0.0 1.0 0.00 0.00 0.00 67 1006.0
20260904073905 63 166 0.0 1.0 0.00 0.00 0.00 67 1006.0
20260904073404 63 166 0.0 3.0 0.00 0.00 0.00 67 1006.1
20260904072905 63 166 1.0 3.0 0.00 0.00 0.00 68 1006.1
20260904072404 63 166 0.0 0.0 0.00 0.00 0.00 67 1006.1
20260904071905 63 166 0.0 0.0 0.00 0.00 0.00 67 1006.1
20260904071405 63 166 0.0 0.0 0.00 0.00 0.00 67 1006.2
20260904070405 64 166 0.0 0.0 0.00 0.00 0.00 65 1006.2
20260904065906 64 166 0.0 3.0 0.00 0.00 0.00 64 1006.3
20260904065405 64 166 0.0 3.0 0.00 0.00 0.00 64 1006.3
20260904064905 64 166 1.0 3.0 0.00 0.00 0.00 63 1006.2
20260904064405 64 171 0.0 0.0 0.00 0.00 0.00 64 1006.2
20260904063405 65 171 0.0 0.0 0.00 0.00 0.00 63 1006.1
20260904062905 65 171 0.0 0.0 0.00 0.00 0.00 63 1006.2
20260904062405 65 171 0.0 0.0 0.00 0.00 0.00 63 1006.1
20260904061905 65 171 0.0 0.0 0.00 0.00 0.00 64 1006.2
20260904060905 65 171 0.0 1.0 0.00 0.00 0.00 64 1006.3
20260904060405 65 171 0.0 1.0 0.00 0.00 0.00 63 1006.2
20260904054905 66 171 0.0 0.0 0.00 0.00 0.00 62 1006.3
20260904054405 66 171 0.0 0.0 0.00 0.00 0.00 61 1006.4
20260904051404 66 171 0.0 0.0 0.00 0.00 0.00 57 1006.5
20260904050405 66 171 0.0 1.0 0.00 0.00 0.00 58 1006.5
20260904045905 66 146 0.0 3.0 0.00 0.00 0.00 57 1006.5
20260904045405 66 146 0.0 3.0 0.00 0.00 0.00 57 1006.5
20260904044905 66 144 1.0 3.0 0.00 0.00 0.00 57 1006.4
20260904044405 66 142 2.0 3.0 0.00 0.00 0.00 58 1006.5
20260904043404 66 124 0.0 2.0 0.00 0.00 0.00 60 1006.5
20260904040905 66 67 0.0 2.0 0.00 0.00 0.00 57 1006.6
20260904040404 66 109 0.0 2.0 0.00 0.00 0.00 58 1006.7
20260904034405 67 110 0.0 2.0 0.00 0.00 0.00 58 1006.9
20260904033905 68 46 0.0 1.0 0.00 0.00 0.00 56 1006.8
20260904033405 68 46 0.0 0.0 0.00 0.00 0.00 55 1006.8
20260904031905 70 46 0.0 0.0 0.00 0.00 0.00 51 1006.8
20260904031405 70 46 0.0 0.0 0.00 0.00 0.00 51 1006.8
20260904030905 71 46 0.0 0.0 0.00 0.00 0.00 50 1006.8
20260904030405 72 46 0.0 0.0 0.00 0.00 0.00 49 1006.7
20260904024904 73 46 0.0 3.0 0.00 0.00 0.00 46 1006.5
20260904022905 76 66 0.0 8.0 0.00 0.00 0.00 42 1006.1
20260904022405 76 30 3.0 8.0 0.00 0.00 0.00 40 1005.9
20260904014405 78 204 2.0 5.0 0.00 0.00 0.00 36 1005.2
20260904013905 78 236 1.0 5.0 0.00 0.00 0.00 35 1005.1
20260904013405 78 141 1.0 5.0 0.00 0.00 0.00 36 1005.0
20260904012905 78 141 0.0 6.0 0.00 0.00 0.00 35 1005.0
20260904011905 79 144 1.0 5.0 0.00 0.00 0.00 34 1005.0
20260904010405 79 207 1.0 5.0 0.00 0.00 0.00 34 1004.9
20260904005904 79 243 2.0 6.0 0.00 0.00 0.00 33 1004.9
20260904004405 80 206 1.0 5.0 0.00 0.00 0.00 33 1004.8
20260904002404 81 197 2.0 9.0 0.00 0.00 0.00 31 1004.7
20260904000405 83 202 3.0 8.0 0.00 0.00 0.00 31 1004.7
20260903234405 84 164 3.0 8.0 0.00 0.00 0.00 30 1004.6
20260903233905 84 162 2.0 10.0 0.00 0.00 0.00 30 1004.6
20260903232405 84 231 1.0 10.0 0.00 0.00 0.00 29 1004.6
20260903231904 84 225 3.0 10.0 0.00 0.00 0.00 29 1004.7
20260903225405 85 184 3.0 9.0 0.00 0.00 0.00 29 1004.7
20260903224405 85 202 3.0 9.0 0.00 0.00 0.00 29 1004.9
20260903223905 85 196 4.0 9.0 0.00 0.00 0.00 28 1004.9
20260903221404 86 258 5.0 9.0 0.00 0.00 0.00 28 1005.0
20260903220405 85 237 3.0 6.0 0.00 0.00 0.00 28 1005.1
20260903214404 84 242 2.0 8.0 0.00 0.00 0.00 29 1005.3
20260903213905 84 227 2.0 6.0 0.00 0.00 0.00 28 1005.5
20260903212904 85 226 1.0 6.0 0.00 0.00 0.00 29 1005.6
20260903211904 85 205 3.0 12.0 0.00 0.00 0.00 27 1005.6